Tiempo Historia de Santiago, Chile

Change the Weather History Date:

Miércoles, Marzo 28, 2012

  Actual Average Record
Temperature  
Temperatura media 66 ° F -  
Temperatura máxima 84 ° F 71 ° F 87 ° F (1997)
Temperatura mínima 48 ° F 43 ° F 44 ° F (1999)
Cooling Degree Days 1    
Growing Degree Days 16 (Base 50)    
Moisture  
Punto de rocío 45 ° F    
Average Humidity 47    
Maximum Humidity 76    
Minimum Humidity 16    
Precipitación  
Precipitación 0.00 pul - - ()
Presión al nivel del mar  
Presión al nivel del mar 29.94 pul    
Viento  
Velocidad del viento 5 mph ()    
Velocidad máxima del viento 17 mph    
Max Gust Speed -    
Visibilidad 5.5 Millas    
Eventos      
Averages and records for this station are not official NWS values.
T = Trace of Precipitation, MM = Missing Value Source: Averaged Metar Reports

Daily Weather History Graph

Daily Weather History Graph

Search for Another Location

Airport:

Trip Planner

Search our weather history database for the weather conditions in past years. The results will help you decide how hot, cold, wet, or windy it might be!

Date:

Astronomía

Mar. 28, 2012 Salida Puesta
Hora real 7:52 AM CLST 7:42 PM CLST
Crepúsculo civil 7:27 AM CLST 8:07 PM CLST
Crepúsculo náutico 6:59 AM CLST 8:36 PM CLST
Crepúsculo astronómico 6:30 AM CLST 9:05 PM CLST
Luna 1:11 PM CLST (3/28) 11:28 PM CLST (3/28)
Horas de luz 12h 39m
Horas de luz
11h 50m
Creciente, 29% of the Moon is Illuminated
Mar 28
Creciente
Mar 30
Cuarto creciente
Abr 6
Luna llena
Abr 13
Cuarto menguante
Abr 21
Nueva

Hourly Weather History & Observations

Hora (CLST) Temp. Punto de rocío Humedad Presión Visibilidad Wind Dir Velocidad del viento Velocidad de ráfagas Precip Eventos Condiciones
12:00 AM 64 ° F 44 ° F 37% 29.95 pul 6 mi SSE 6.9 mph - -  
12:00 AM 64.4 ° F 44.6 ° F 49% 29.98 pul - SSE 6.9 mph - N/A   Despejado
1:00 AM 60.8 ° F 46.4 ° F 59% 29.98 pul - Sur 2.3 mph - N/A   Despejado
2:00 AM 59.0 ° F 44.6 ° F 59% 29.95 pul - Variable 1.2 mph - N/A   Despejado
3:00 AM 56 ° F 44 ° F 55% 29.95 pul 6 mi 1.2 mph - -  
3:00 AM 55.4 ° F 44.6 ° F 67% 29.95 pul - Variable 1.2 mph - N/A   Despejado
4:00 AM 55.4 ° F 44.6 ° F 67% 29.95 pul - Sur 3.5 mph - N/A   Despejado
5:00 AM 57.2 ° F 46.4 ° F 67% 29.95 pul - SSE 6.9 mph - N/A   Despejado
6:00 AM 54 ° F 44 ° F 61% 29.96 pul 6 mi SSO 3.5 mph - -  
6:00 AM 53.6 ° F 44.6 ° F 72% 29.95 pul - SSO 3.5 mph - N/A   Despejado
7:00 AM 50.0 ° F 41.0 ° F 71% 29.95 pul 5.0 mi NE 3.5 mph - N/A   Despejado
8:00 AM 51.8 ° F 44.6 ° F 76% 29.95 pul 5.0 mi NE 3.5 mph - N/A   Despejado
9:00 AM 52 ° F 43 ° F 62% 29.99 pul 4 mi 1.2 mph - -   Humo
9:00 AM 51.8 ° F 42.8 ° F 71% 29.98 pul 4.3 mi Variable 1.2 mph - N/A   Despejado
10:00 AM 59.0 ° F 42.8 ° F 55% 29.98 pul - Sin viento Sin viento - N/A   Despejado
11:00 AM 68.0 ° F 44.6 ° F 43% 29.98 pul - Variable 2.3 mph - N/A   Despejado
12:00 PM 72 ° F 45 ° F 27% 29.93 pul 6 mi SSE 3.5 mph - -  
12:00 PM 71.6 ° F 44.6 ° F 38% 29.98 pul - Variable 3.5 mph - N/A   Despejado
1:00 PM 77.0 ° F 41.0 ° F 28% 29.95 pul - Sur 6.9 mph - N/A   Despejado
2:00 PM 80.6 ° F 41.0 ° F 24% 29.95 pul - SSE 13.8 mph - N/A   Despejado
3:00 PM 83 ° F 45 ° F 17% 29.86 pul 6 mi SSE 12.7 mph - -  
3:00 PM 82.4 ° F 44.6 ° F 26% 29.92 pul - SSE 12.7 mph - N/A   Despejado
4:00 PM 82.4 ° F 42.8 ° F 25% 29.92 pul - SSE 16.1 mph - N/A   Despejado
5:00 PM 84.2 ° F 41.0 ° F 22% 29.92 pul - SSE 16.1 mph - N/A   Despejado
6:00 PM 81 ° F 43 ° F 16% 29.84 pul 6 mi Sur 17.3 mph - -  
6:00 PM 80.6 ° F 42.8 ° F 26% 29.92 pul - Sur 17.3 mph - N/A   Despejado
7:00 PM 77.0 ° F 44.6 ° F 32% 29.92 pul - Sur 15.0 mph - N/A   Despejado
8:00 PM 71.6 ° F 48.2 ° F 43% 29.92 pul - Sur 9.2 mph - N/A   Despejado
9:00 PM 68 ° F 49 ° F 40% 29.91 pul 6 mi SSE 10.4 mph - -  
9:00 PM 68.0 ° F 50.0 ° F 52% 29.95 pul - SSE 10.4 mph - N/A   Despejado
10:00 PM 64.4 ° F 50.0 ° F 59% 29.95 pul - SSE 9.2 mph - N/A   Despejado
11:00 PM 64.4 ° F 50.0 ° F 59% 29.98 pul - SSE 3.5 mph - N/A   Despejado